﻿測定場所 (Monitoring sites),日付 (Measurement date),時間 (Measurement time),線量率 最大値 (max) μGy/h,線量率 最小値 (min) μGy/h,線量率 平均値 (average) μGy/h,
足立 (Adachi),2014-08-24,23:01～24:00,0.0497,0.0414,0.0451,
足立 (Adachi),2014-08-24,22:01～23:00,0.0478,0.0423,0.0449,
足立 (Adachi),2014-08-24,21:01～22:00,0.0487,0.0417,0.0451,
足立 (Adachi),2014-08-24,20:01～21:00,0.0494,0.0406,0.0453,
足立 (Adachi),2014-08-24,19:01～20:00,0.0489,0.0418,0.0452,
足立 (Adachi),2014-08-24,18:01～19:00,0.0480,0.0415,0.0444,
足立 (Adachi),2014-08-24,17:01～18:00,0.0476,0.0407,0.0447,
足立 (Adachi),2014-08-24,16:01～17:00,0.0477,0.0416,0.0450,
足立 (Adachi),2014-08-24,15:01～16:00,0.0497,0.0403,0.0451,
足立 (Adachi),2014-08-24,14:01～15:00,0.0478,0.0414,0.0448,
足立 (Adachi),2014-08-24,13:01～14:00,0.0479,0.0416,0.0449,
足立 (Adachi),2014-08-24,12:01～13:00,0.0481,0.0411,0.0451,
足立 (Adachi),2014-08-24,11:01～12:00,0.0486,0.0414,0.0451,
足立 (Adachi),2014-08-24,10:01～11:00,0.0473,0.0418,0.0451,
足立 (Adachi),2014-08-24,09:01～10:00,0.0491,0.0417,0.0449,
足立 (Adachi),2014-08-24,08:01～09:00,0.0483,0.0428,0.0450,
足立 (Adachi),2014-08-24,07:01～08:00,0.0487,0.0416,0.0447,
足立 (Adachi),2014-08-24,06:01～07:00,0.0483,0.0422,0.0452,
足立 (Adachi),2014-08-24,05:01～06:00,0.0489,0.0419,0.0453,
足立 (Adachi),2014-08-24,04:01～05:00,0.0477,0.0422,0.0450,
足立 (Adachi),2014-08-24,03:01～04:00,0.0476,0.0420,0.0448,
足立 (Adachi),2014-08-24,02:01～03:00,0.0477,0.0412,0.0449,
足立 (Adachi),2014-08-24,01:01～02:00,0.0483,0.0422,0.0450,
足立 (Adachi),2014-08-24,00:01～01:00,0.0475,0.0410,0.0447,
足立 (Adachi),2014-08-23,23:01～24:00,0.0471,0.0415,0.0444,
足立 (Adachi),2014-08-23,22:01～23:00,0.0480,0.0408,0.0448,
足立 (Adachi),2014-08-23,21:01～22:00,0.0486,0.0409,0.0448,
足立 (Adachi),2014-08-23,20:01～21:00,0.0471,0.0416,0.0443,
足立 (Adachi),2014-08-23,19:01～20:00,0.0481,0.0414,0.0445,
足立 (Adachi),2014-08-23,18:01～19:00,0.0479,0.0413,0.0446,
足立 (Adachi),2014-08-23,17:01～18:00,0.0478,0.0411,0.0442,
足立 (Adachi),2014-08-23,16:01～17:00,0.0473,0.0415,0.0441,
足立 (Adachi),2014-08-23,15:01～16:00,0.0481,0.0415,0.0447,
足立 (Adachi),2014-08-23,14:01～15:00,0.0486,0.0421,0.0454,
足立 (Adachi),2014-08-23,13:01～14:00,0.0515,0.0438,0.0478,
足立 (Adachi),2014-08-23,12:01～13:00,0.0514,0.0434,0.0478,
足立 (Adachi),2014-08-23,11:01～12:00,0.0474,0.0416,0.0449,
足立 (Adachi),2014-08-23,10:01～11:00,0.0476,0.0419,0.0447,
足立 (Adachi),2014-08-23,09:01～10:00,0.0468,0.0417,0.0448,
足立 (Adachi),2014-08-23,08:01～09:00,0.0468,0.0419,0.0445,
足立 (Adachi),2014-08-23,07:01～08:00,0.0478,0.0412,0.0446,
足立 (Adachi),2014-08-23,06:01～07:00,0.0473,0.0421,0.0450,
足立 (Adachi),2014-08-23,05:01～06:00,0.0488,0.0404,0.0446,
足立 (Adachi),2014-08-23,04:01～05:00,0.0484,0.0424,0.0448,
足立 (Adachi),2014-08-23,03:01～04:00,0.0484,0.0416,0.0453,
足立 (Adachi),2014-08-23,02:01～03:00,0.0482,0.0423,0.0447,
足立 (Adachi),2014-08-23,01:01～02:00,0.0480,0.0422,0.0447,
足立 (Adachi),2014-08-23,00:01～01:00,0.0490,0.0421,0.0450,
足立 (Adachi),2014-08-22,23:01～24:00,0.0478,0.0424,0.0448,
足立 (Adachi),2014-08-22,22:01～23:00,0.0479,0.0426,0.0452,
足立 (Adachi),2014-08-22,21:01～22:00,0.0471,0.0413,0.0445,
足立 (Adachi),2014-08-22,20:01～21:00,0.0474,0.0418,0.0447,
足立 (Adachi),2014-08-22,19:01～20:00,0.0480,0.0418,0.0445,
足立 (Adachi),2014-08-22,18:01～19:00,0.0469,0.0413,0.0441,
足立 (Adachi),2014-08-22,17:01～18:00,0.0477,0.0406,0.0444,
足立 (Adachi),2014-08-22,16:01～17:00,0.0478,0.0410,0.0442,
足立 (Adachi),2014-08-22,15:01～16:00,0.0498,0.0407,0.0445,
足立 (Adachi),2014-08-22,14:01～15:00,0.0473,0.0413,0.0442,
足立 (Adachi),2014-08-22,13:01～14:00,0.0472,0.0408,0.0441,
足立 (Adachi),2014-08-22,12:01～13:00,0.0474,0.0420,0.0444,
足立 (Adachi),2014-08-22,11:01～12:00,0.0461,0.0415,0.0441,
足立 (Adachi),2014-08-22,10:01～11:00,0.0476,0.0422,0.0448,
足立 (Adachi),2014-08-22,09:01～10:00,0.0481,0.0402,0.0439,
足立 (Adachi),2014-08-22,08:01～09:00,0.0465,0.0406,0.0438,
足立 (Adachi),2014-08-22,07:01～08:00,0.0471,0.0409,0.0438,
足立 (Adachi),2014-08-22,06:01～07:00,0.0463,0.0407,0.0435,
足立 (Adachi),2014-08-22,05:01～06:00,0.0474,0.0402,0.0439,
足立 (Adachi),2014-08-22,04:01～05:00,0.0483,0.0418,0.0442,
足立 (Adachi),2014-08-22,03:01～04:00,0.0468,0.0404,0.0442,
足立 (Adachi),2014-08-22,02:01～03:00,0.0482,0.0406,0.0445,
足立 (Adachi),2014-08-22,01:01～02:00,0.0497,0.0416,0.0445,
足立 (Adachi),2014-08-22,00:01～01:00,0.0489,0.0419,0.0449,
足立 (Adachi),2014-08-21,23:01～24:00,0.0480,0.0418,0.0450,
足立 (Adachi),2014-08-21,22:01～23:00,0.0475,0.0411,0.0445,
足立 (Adachi),2014-08-21,21:01～22:00,0.0478,0.0407,0.0446,
足立 (Adachi),2014-08-21,20:01～21:00,0.0480,0.0416,0.0442,
足立 (Adachi),2014-08-21,19:01～20:00,0.0495,0.0418,0.0446,
足立 (Adachi),2014-08-21,18:01～19:00,0.0479,0.0422,0.0444,
足立 (Adachi),2014-08-21,17:01～18:00,0.0471,0.0420,0.0445,
足立 (Adachi),2014-08-21,16:01～17:00,0.0473,0.0406,0.0443,
足立 (Adachi),2014-08-21,15:01～16:00,0.0471,0.0401,0.0441,
足立 (Adachi),2014-08-21,14:01～15:00,0.0475,0.0404,0.0442,
足立 (Adachi),2014-08-21,13:01～14:00,0.0490,0.0420,0.0444,
足立 (Adachi),2014-08-21,12:01～13:00,0.0491,0.0419,0.0447,
足立 (Adachi),2014-08-21,11:01～12:00,0.0477,0.0414,0.0446,
足立 (Adachi),2014-08-21,10:01～11:00,0.0485,0.0407,0.0448,
足立 (Adachi),2014-08-21,09:01～10:00,0.0470,0.0409,0.0443,
足立 (Adachi),2014-08-21,08:01～09:00,0.0469,0.0419,0.0444,
足立 (Adachi),2014-08-21,07:01～08:00,0.0472,0.0421,0.0446,
足立 (Adachi),2014-08-21,06:01～07:00,0.0478,0.0407,0.0444,
足立 (Adachi),2014-08-21,05:01～06:00,0.0476,0.0409,0.0443,
足立 (Adachi),2014-08-21,04:01～05:00,0.0474,0.0413,0.0440,
足立 (Adachi),2014-08-21,03:01～04:00,0.0478,0.0397,0.0445,
足立 (Adachi),2014-08-21,02:01～03:00,0.0493,0.0412,0.0448,
足立 (Adachi),2014-08-21,01:01～02:00,0.0478,0.0393,0.0438,
足立 (Adachi),2014-08-21,00:01～01:00,0.0470,0.0413,0.0438,
足立 (Adachi),2014-08-20,23:01～24:00,0.0469,0.0406,0.0440,
足立 (Adachi),2014-08-20,22:01～23:00,0.0478,0.0406,0.0441,
足立 (Adachi),2014-08-20,21:01～22:00,0.0475,0.0404,0.0441,
足立 (Adachi),2014-08-20,20:01～21:00,0.0475,0.0415,0.0441,
足立 (Adachi),2014-08-20,19:01～20:00,0.0470,0.0407,0.0439,
足立 (Adachi),2014-08-20,18:01～19:00,0.0469,0.0410,0.0438,
足立 (Adachi),2014-08-20,17:01～18:00,0.0476,0.0416,0.0442,
足立 (Adachi),2014-08-20,16:01～17:00,0.0580,0.0417,0.0445,
足立 (Adachi),2014-08-20,15:01～16:00,0.0465,0.0420,0.0442,
足立 (Adachi),2014-08-20,14:01～15:00,0.0483,0.0415,0.0444,
足立 (Adachi),2014-08-20,13:01～14:00,0.0471,0.0406,0.0439,
足立 (Adachi),2014-08-20,12:01～13:00,0.0477,0.0409,0.0442,
足立 (Adachi),2014-08-20,11:01～12:00,0.0470,0.0408,0.0439,
足立 (Adachi),2014-08-20,10:01～11:00,0.0464,0.0412,0.0440,
足立 (Adachi),2014-08-20,09:01～10:00,0.0464,0.0405,0.0434,
足立 (Adachi),2014-08-20,08:01～09:00,0.0460,0.0402,0.0434,
足立 (Adachi),2014-08-20,07:01～08:00,0.0466,0.0399,0.0432,
足立 (Adachi),2014-08-20,06:01～07:00,0.0462,0.0404,0.0433,
足立 (Adachi),2014-08-20,05:01～06:00,0.0474,0.0407,0.0440,
足立 (Adachi),2014-08-20,04:01～05:00,0.0469,0.0408,0.0441,
足立 (Adachi),2014-08-20,03:01～04:00,0.0472,0.0413,0.0439,
足立 (Adachi),2014-08-20,02:01～03:00,0.0463,0.0405,0.0436,
足立 (Adachi),2014-08-20,01:01～02:00,0.0467,0.0403,0.0438,
足立 (Adachi),2014-08-20,00:01～01:00,0.0464,0.0407,0.0438,
足立 (Adachi),2014-08-19,23:01～24:00,0.0473,0.0412,0.0440,
足立 (Adachi),2014-08-19,22:01～23:00,0.0477,0.0411,0.0441,
足立 (Adachi),2014-08-19,21:01～22:00,0.0472,0.0414,0.0438,
足立 (Adachi),2014-08-19,20:01～21:00,0.0478,0.0406,0.0440,
足立 (Adachi),2014-08-19,19:01～20:00,0.0471,0.0416,0.0439,
足立 (Adachi),2014-08-19,18:01～19:00,0.0467,0.0408,0.0436,
足立 (Adachi),2014-08-19,17:01～18:00,0.0469,0.0393,0.0433,
足立 (Adachi),2014-08-19,16:01～17:00,0.0465,0.0402,0.0432,
足立 (Adachi),2014-08-19,15:01～16:00,0.0463,0.0401,0.0436,
足立 (Adachi),2014-08-19,14:01～15:00,0.0478,0.0398,0.0435,
足立 (Adachi),2014-08-19,13:01～14:00,0.0463,0.0400,0.0428,
足立 (Adachi),2014-08-19,12:01～13:00,0.0463,0.0401,0.0430,
足立 (Adachi),2014-08-19,11:01～12:00,0.0464,0.0401,0.0435,
足立 (Adachi),2014-08-19,10:01～11:00,0.0458,0.0405,0.0431,
足立 (Adachi),2014-08-19,09:01～10:00,0.0461,0.0396,0.0430,
足立 (Adachi),2014-08-19,08:01～09:00,0.0468,0.0396,0.0434,
足立 (Adachi),2014-08-19,07:01～08:00,0.0467,0.0399,0.0432,
足立 (Adachi),2014-08-19,06:01～07:00,0.0458,0.0392,0.0428,
足立 (Adachi),2014-08-19,05:01～06:00,0.0445,0.0391,0.0416,
足立 (Adachi),2014-08-19,04:01～05:00,0.0459,0.0388,0.0421,
足立 (Adachi),2014-08-19,03:01～04:00,0.0477,0.0406,0.0435,
足立 (Adachi),2014-08-19,02:01～03:00,0.0478,0.0406,0.0434,
足立 (Adachi),2014-08-19,01:01～02:00,0.0466,0.0396,0.0431,
足立 (Adachi),2014-08-19,00:01～01:00,0.0467,0.0401,0.0433,
足立 (Adachi),2014-08-18,23:01～24:00,0.0458,0.0407,0.0434,
足立 (Adachi),2014-08-18,22:01～23:00,0.0458,0.0401,0.0431,
足立 (Adachi),2014-08-18,21:01～22:00,0.0453,0.0410,0.0432,
足立 (Adachi),2014-08-18,20:01～21:00,0.0465,0.0403,0.0433,
足立 (Adachi),2014-08-18,19:01～20:00,0.0467,0.0404,0.0431,
足立 (Adachi),2014-08-18,18:01～19:00,0.0458,0.0403,0.0428,
足立 (Adachi),2014-08-18,17:01～18:00,0.0463,0.0404,0.0428,
足立 (Adachi),2014-08-18,16:01～17:00,0.0466,0.0402,0.0429,
足立 (Adachi),2014-08-18,15:01～16:00,0.0464,0.0404,0.0432,
足立 (Adachi),2014-08-18,14:01～15:00,0.0453,0.0404,0.0430,
足立 (Adachi),2014-08-18,13:01～14:00,0.0460,0.0383,0.0428,
足立 (Adachi),2014-08-18,12:01～13:00,0.0472,0.0404,0.0432,
足立 (Adachi),2014-08-18,11:01～12:00,0.0475,0.0396,0.0427,
足立 (Adachi),2014-08-18,10:01～11:00,0.0459,0.0405,0.0431,
足立 (Adachi),2014-08-18,09:01～10:00,0.0461,0.0398,0.0427,
足立 (Adachi),2014-08-18,08:01～09:00,0.0461,0.0397,0.0429,
足立 (Adachi),2014-08-18,07:01～08:00,0.0460,0.0390,0.0423,
足立 (Adachi),2014-08-18,06:01～07:00,0.0481,0.0394,0.0427,
足立 (Adachi),2014-08-18,05:01～06:00,0.0473,0.0392,0.0426,
足立 (Adachi),2014-08-18,04:01～05:00,0.0466,0.0395,0.0431,
足立 (Adachi),2014-08-18,03:01～04:00,0.0462,0.0394,0.0428,
足立 (Adachi),2014-08-18,02:01～03:00,0.0455,0.0401,0.0429,
足立 (Adachi),2014-08-18,01:01～02:00,0.0459,0.0395,0.0429,
足立 (Adachi),2014-08-18,00:01～01:00,0.0456,0.0405,0.0428,
